Year,Month,Day,Hour,Minute,Value (Times are PST for temperature in C)
2016,07,21,00,00,15.30
2016,07,21,00,01,15.40
2016,07,21,00,02,15.40
2016,07,21,00,03,15.40
2016,07,21,00,04,15.40
2016,07,21,00,05,15.40
2016,07,21,00,06,15.40
2016,07,21,00,07,15.40
2016,07,21,00,08,15.40
2016,07,21,00,09,15.40
2016,07,21,00,10,15.40
2016,07,21,00,11,15.40
2016,07,21,00,12,15.40
2016,07,21,00,13,15.40
2016,07,21,00,14,15.50
2016,07,21,00,15,15.50
2016,07,21,00,16,15.50
2016,07,21,00,17,15.50
2016,07,21,00,18,15.50
2016,07,21,00,19,15.50
2016,07,21,00,20,15.50
2016,07,21,00,21,15.40
2016,07,21,00,22,15.40
2016,07,21,00,23,15.40
2016,07,21,00,24,15.40
2016,07,21,00,25,15.40
2016,07,21,00,26,15.40
2016,07,21,00,27,15.40
2016,07,21,00,28,15.40
2016,07,21,00,29,15.40
2016,07,21,00,30,15.40
2016,07,21,00,31,15.30
2016,07,21,00,32,15.30
2016,07,21,00,33,15.30
2016,07,21,00,34,15.40
2016,07,21,00,35,15.40
2016,07,21,00,36,15.40
2016,07,21,00,37,15.40
2016,07,21,00,38,15.40
2016,07,21,00,39,15.40
2016,07,21,00,40,15.40
2016,07,21,00,41,15.40
2016,07,21,00,42,15.40
2016,07,21,00,43,15.40
2016,07,21,00,44,15.40
2016,07,21,00,45,15.40
2016,07,21,00,46,15.40
2016,07,21,00,47,15.40
2016,07,21,00,48,15.40
2016,07,21,00,49,15.40
2016,07,21,00,50,15.40
2016,07,21,00,51,15.40
2016,07,21,00,52,15.40
2016,07,21,00,53,15.40
2016,07,21,00,54,15.40
2016,07,21,00,55,15.40
2016,07,21,00,56,15.40
2016,07,21,00,57,15.40
2016,07,21,00,58,15.40
2016,07,21,00,59,15.40
2016,07,21,01,00,15.40
2016,07,21,01,01,15.40
2016,07,21,01,02,15.50
2016,07,21,01,03,15.50
2016,07,21,01,04,15.50
2016,07,21,01,05,15.50
2016,07,21,01,06,15.50
2016,07,21,01,07,15.50
2016,07,21,01,08,15.50
2016,07,21,01,09,15.50
2016,07,21,01,10,15.50
2016,07,21,01,11,15.50
2016,07,21,01,12,15.50
2016,07,21,01,13,15.50
2016,07,21,01,14,15.50
2016,07,21,01,15,15.50
2016,07,21,01,16,15.50
2016,07,21,01,17,15.50
2016,07,21,01,18,15.50
2016,07,21,01,19,15.50
2016,07,21,01,20,15.60
2016,07,21,01,21,15.60
2016,07,21,01,22,15.60
2016,07,21,01,23,15.60
2016,07,21,01,24,15.60
2016,07,21,01,25,15.60
2016,07,21,01,26,15.60
2016,07,21,01,27,15.60
2016,07,21,01,28,15.60
2016,07,21,01,29,15.60
2016,07,21,01,30,15.60
2016,07,21,01,31,15.50
2016,07,21,01,32,15.50
2016,07,21,01,33,15.50
2016,07,21,01,34,15.50
2016,07,21,01,35,15.40
2016,07,21,01,36,15.40
2016,07,21,01,37,15.40
2016,07,21,01,38,15.40
2016,07,21,01,39,15.30
2016,07,21,01,40,15.30
2016,07,21,01,41,15.30
2016,07,21,01,42,15.30
2016,07,21,01,43,15.30
2016,07,21,01,44,15.30
2016,07,21,01,45,15.30
2016,07,21,01,46,15.30
2016,07,21,01,47,15.20
2016,07,21,01,48,15.20
2016,07,21,01,49,15.20
2016,07,21,01,50,15.20
2016,07,21,01,51,15.20
2016,07,21,01,52,15.20
2016,07,21,01,53,15.20
2016,07,21,01,54,15.10
2016,07,21,01,55,15.10
2016,07,21,01,56,15.10
2016,07,21,01,57,15.10
2016,07,21,01,58,15.10
2016,07,21,01,59,15.10
2016,07,21,02,00,15.10
2016,07,21,02,01,15.10
2016,07,21,02,02,15.10
2016,07,21,02,03,15.10
2016,07,21,02,04,15.10
2016,07,21,02,05,15.10
2016,07,21,02,06,15.10
2016,07,21,02,07,15.10
2016,07,21,02,08,15.10
2016,07,21,02,09,15.10
2016,07,21,02,10,15.00
2016,07,21,02,11,15.00
2016,07,21,02,12,15.00
2016,07,21,02,13,15.00
2016,07,21,02,14,15.00
2016,07,21,02,15,15.00
2016,07,21,02,16,15.00
2016,07,21,02,17,15.00
2016,07,21,02,18,15.00
2016,07,21,02,19,15.00
2016,07,21,02,20,15.00
2016,07,21,02,21,15.00
2016,07,21,02,22,15.00
2016,07,21,02,23,15.00
2016,07,21,02,24,15.00
2016,07,21,02,25,15.00
2016,07,21,02,26,15.00
2016,07,21,02,27,15.00
2016,07,21,02,28,15.00
2016,07,21,02,29,15.00
2016,07,21,02,30,15.00
2016,07,21,02,31,15.10
2016,07,21,02,32,15.10
2016,07,21,02,33,15.10
2016,07,21,02,34,15.10
2016,07,21,02,35,15.10
2016,07,21,02,36,15.10
2016,07,21,02,37,15.10
2016,07,21,02,38,15.10
2016,07,21,02,39,15.10
2016,07,21,02,40,15.10
2016,07,21,02,41,15.10
2016,07,21,02,42,15.10
2016,07,21,02,43,15.10
2016,07,21,02,44,15.10
2016,07,21,02,45,15.10
2016,07,21,02,46,15.10
2016,07,21,02,47,15.10
2016,07,21,02,48,15.10
2016,07,21,02,49,15.00
2016,07,21,02,50,15.00
2016,07,21,02,51,15.00
2016,07,21,02,52,15.00
2016,07,21,02,53,15.00
2016,07,21,02,54,15.00
2016,07,21,02,55,14.90
2016,07,21,02,56,14.90
2016,07,21,02,57,14.90
2016,07,21,02,58,14.90
2016,07,21,02,59,14.90
2016,07,21,03,00,14.90
2016,07,21,03,01,14.90
2016,07,21,03,02,14.90
2016,07,21,03,06,14.80
2016,07,21,03,07,14.80
2016,07,21,03,08,14.80
2016,07,21,03,09,14.80
2016,07,21,03,10,14.80
2016,07,21,03,11,14.80
2016,07,21,03,12,14.80
2016,07,21,03,13,14.80
2016,07,21,03,14,14.80
2016,07,21,03,15,14.80
2016,07,21,03,16,14.80
2016,07,21,03,17,14.80
2016,07,21,03,18,14.70
2016,07,21,03,19,14.70
2016,07,21,03,20,14.70
2016,07,21,03,21,14.70
2016,07,21,03,22,14.70
2016,07,21,03,23,14.70
2016,07,21,03,24,14.60
2016,07,21,03,25,14.60
2016,07,21,03,26,14.60
2016,07,21,03,27,14.50
2016,07,21,03,28,14.50
2016,07,21,03,29,14.50
2016,07,21,03,30,14.50
2016,07,21,03,31,14.40
2016,07,21,03,32,14.40
2016,07,21,03,33,14.40
2016,07,21,03,34,14.40
2016,07,21,03,35,14.40
2016,07,21,03,36,14.40
2016,07,21,03,37,14.30
2016,07,21,03,38,14.30
2016,07,21,03,39,14.30
2016,07,21,03,40,14.30
2016,07,21,03,41,14.30
2016,07,21,03,42,14.30
2016,07,21,03,43,14.30
2016,07,21,03,44,14.30
2016,07,21,03,45,14.30
2016,07,21,03,46,14.30
2016,07,21,03,47,14.30
2016,07,21,03,48,14.30
2016,07,21,03,49,14.30
2016,07,21,03,50,14.30
2016,07,21,03,51,14.30
2016,07,21,03,52,14.30
2016,07,21,03,53,14.30
2016,07,21,03,54,14.30
2016,07,21,03,55,14.30
2016,07,21,03,56,14.40
2016,07,21,03,57,14.40
2016,07,21,03,58,14.40
2016,07,21,03,59,14.40
2016,07,21,04,00,14.40
2016,07,21,04,01,14.40
2016,07,21,04,02,14.40
2016,07,21,04,03,14.40
2016,07,21,04,04,14.40
2016,07,21,04,05,14.40
2016,07,21,04,06,14.40
2016,07,21,04,07,14.40
2016,07,21,04,08,14.40
2016,07,21,04,09,14.40
2016,07,21,04,10,14.50
2016,07,21,04,11,14.50
2016,07,21,04,12,14.50
2016,07,21,04,13,14.50
2016,07,21,04,14,14.50
2016,07,21,04,15,14.50
2016,07,21,04,16,14.50
2016,07,21,04,17,14.50
2016,07,21,04,18,14.50
2016,07,21,04,19,14.50
2016,07,21,04,20,14.50
2016,07,21,04,21,14.50
2016,07,21,04,22,14.50
2016,07,21,04,23,14.50
2016,07,21,04,24,14.50
2016,07,21,04,25,14.50
2016,07,21,04,26,14.50
2016,07,21,04,27,14.50
2016,07,21,04,28,14.50
2016,07,21,04,29,14.60
2016,07,21,04,30,14.60
2016,07,21,04,31,14.60
2016,07,21,04,32,14.60
2016,07,21,04,33,14.60
2016,07,21,04,34,14.60
2016,07,21,04,35,14.60
2016,07,21,04,36,14.70
2016,07,21,04,37,14.70
2016,07,21,04,38,14.70
2016,07,21,04,39,14.70
2016,07,21,04,40,14.70
2016,07,21,04,41,14.70
2016,07,21,04,42,14.70
2016,07,21,04,43,14.70
2016,07,21,04,44,14.70
2016,07,21,04,45,14.70
2016,07,21,04,46,14.70
2016,07,21,04,47,14.70
2016,07,21,04,48,14.70
2016,07,21,04,49,14.70
2016,07,21,04,50,14.70
2016,07,21,04,51,14.70
2016,07,21,04,52,14.70
2016,07,21,04,53,14.70
2016,07,21,04,54,14.70
2016,07,21,04,55,14.70
2016,07,21,04,56,14.70
2016,07,21,04,57,14.70
2016,07,21,04,58,14.70
2016,07,21,04,59,14.70
2016,07,21,05,00,14.70
2016,07,21,05,01,14.70
2016,07,21,05,02,14.70
2016,07,21,05,03,14.70
2016,07,21,05,04,14.70
2016,07,21,05,05,14.60
2016,07,21,05,06,14.60
2016,07,21,05,07,14.60
2016,07,21,05,08,14.60
2016,07,21,05,09,14.60
2016,07,21,05,10,14.60
2016,07,21,05,11,14.60
2016,07,21,05,12,14.60
2016,07,21,05,13,14.60
2016,07,21,05,14,14.60
2016,07,21,05,15,14.60
2016,07,21,05,16,14.60
2016,07,21,05,17,14.60
2016,07,21,05,18,14.60
2016,07,21,05,19,14.60
2016,07,21,05,20,14.60
2016,07,21,05,21,14.60
2016,07,21,05,22,14.60
2016,07,21,05,23,14.60
2016,07,21,05,24,14.50
2016,07,21,05,25,14.50
2016,07,21,05,26,14.50
2016,07,21,05,27,14.50
2016,07,21,05,28,14.40
2016,07,21,05,29,14.40
2016,07,21,05,30,14.40
2016,07,21,05,31,14.40
2016,07,21,05,32,14.30
2016,07,21,05,33,14.30
2016,07,21,05,34,14.30
2016,07,21,05,35,14.30
2016,07,21,05,36,14.30
2016,07,21,05,37,14.30
2016,07,21,05,38,14.30
2016,07,21,05,39,14.20
2016,07,21,05,40,14.20
2016,07,21,05,41,14.20
2016,07,21,05,42,14.20
2016,07,21,05,43,14.20
2016,07,21,05,44,14.20
2016,07,21,05,45,14.20
2016,07,21,05,46,14.20
2016,07,21,05,47,14.20
2016,07,21,05,48,14.20
2016,07,21,05,49,14.20
2016,07,21,05,50,14.30
2016,07,21,05,51,14.30
2016,07,21,05,52,14.30
2016,07,21,05,53,14.30
2016,07,21,05,54,14.30
2016,07,21,05,55,14.30
2016,07,21,05,56,14.30
2016,07,21,05,57,14.30
2016,07,21,05,58,14.30
2016,07,21,05,59,14.30
2016,07,21,06,00,14.30
2016,07,21,06,01,14.40
2016,07,21,06,02,14.40
2016,07,21,06,03,14.40
2016,07,21,06,04,14.40
2016,07,21,06,05,14.40
2016,07,21,06,06,14.40
2016,07,21,06,07,14.50
2016,07,21,06,08,14.50
2016,07,21,06,09,14.60
2016,07,21,06,10,14.60
2016,07,21,06,11,14.70
2016,07,21,06,12,14.80
2016,07,21,06,13,14.80
2016,07,21,06,14,14.90
2016,07,21,06,15,15.00
2016,07,21,06,16,15.10
2016,07,21,06,17,15.20
2016,07,21,06,18,15.30
2016,07,21,06,19,15.40
2016,07,21,06,20,15.40
2016,07,21,06,21,15.50
2016,07,21,06,22,15.60
2016,07,21,06,23,15.60
2016,07,21,06,24,15.70
2016,07,21,06,25,15.70
2016,07,21,06,26,15.70
2016,07,21,06,27,15.70
2016,07,21,06,28,15.80
2016,07,21,06,29,15.90
2016,07,21,06,30,16.00
2016,07,21,06,31,16.10
2016,07,21,06,32,16.10
2016,07,21,06,33,16.10
2016,07,21,06,34,16.10
2016,07,21,06,35,16.10
2016,07,21,06,36,16.10
2016,07,21,06,37,16.20
2016,07,21,06,38,16.20
2016,07,21,06,39,16.20
2016,07,21,06,40,16.30
2016,07,21,06,41,16.30
2016,07,21,06,42,16.30
2016,07,21,06,43,16.30
2016,07,21,06,44,16.40
2016,07,21,06,45,16.50
2016,07,21,06,46,16.60
2016,07,21,06,47,16.60
2016,07,21,06,48,16.70
2016,07,21,06,49,16.70
2016,07,21,06,50,16.80
2016,07,21,06,51,16.90
2016,07,21,06,52,17.00
2016,07,21,06,53,17.00
2016,07,21,06,54,17.00
2016,07,21,06,55,17.10
2016,07,21,06,56,17.10
2016,07,21,06,57,17.20
2016,07,21,06,58,17.20
2016,07,21,06,59,17.20
2016,07,21,07,00,17.30
2016,07,21,07,01,17.30
2016,07,21,07,02,17.40
2016,07,21,07,03,17.40
2016,07,21,07,04,17.40
2016,07,21,07,05,17.50
2016,07,21,07,06,17.50
2016,07,21,07,07,17.60
2016,07,21,07,08,17.60
2016,07,21,07,09,17.60
2016,07,21,07,10,17.70
2016,07,21,07,11,17.70
2016,07,21,07,12,17.70
2016,07,21,07,13,17.70
2016,07,21,07,14,17.80
2016,07,21,07,15,17.80
2016,07,21,07,16,17.90
2016,07,21,07,17,17.90
2016,07,21,07,18,17.90
2016,07,21,07,19,18.00
2016,07,21,07,20,18.00
2016,07,21,07,21,18.00
2016,07,21,07,22,18.00
2016,07,21,07,23,18.00
2016,07,21,07,24,18.00
2016,07,21,07,25,18.10
2016,07,21,07,26,18.10
2016,07,21,07,27,18.10
2016,07,21,07,28,18.10
2016,07,21,07,29,18.20
2016,07,21,07,30,18.20
2016,07,21,07,31,18.20
2016,07,21,07,32,18.30
2016,07,21,07,33,18.30
2016,07,21,07,34,18.30
2016,07,21,07,35,18.40
2016,07,21,07,36,18.40
2016,07,21,07,37,18.40
2016,07,21,07,38,18.50
2016,07,21,07,39,18.50
2016,07,21,07,40,18.60
2016,07,21,07,41,18.60
2016,07,21,07,42,18.70
2016,07,21,07,43,18.70
2016,07,21,07,44,18.70
2016,07,21,07,45,18.70
2016,07,21,07,46,18.70
2016,07,21,07,47,18.70
2016,07,21,07,48,18.70
2016,07,21,07,49,18.70
2016,07,21,07,50,18.80
2016,07,21,07,51,18.80
2016,07,21,07,52,18.90
2016,07,21,07,53,18.90
2016,07,21,07,54,18.90
2016,07,21,07,55,18.90
2016,07,21,07,56,18.90
2016,07,21,07,57,18.90
2016,07,21,07,58,19.00
2016,07,21,07,59,19.00
2016,07,21,08,00,19.10
2016,07,21,08,01,19.10
2016,07,21,08,02,19.10
2016,07,21,08,03,19.10
2016,07,21,08,04,19.10
2016,07,21,08,05,19.20
2016,07,21,08,06,19.20
2016,07,21,08,07,19.30
2016,07,21,08,08,19.40
2016,07,21,08,09,19.50
2016,07,21,08,10,19.60
2016,07,21,08,11,19.70
2016,07,21,08,12,19.70
2016,07,21,08,13,19.80
2016,07,21,08,14,19.80
2016,07,21,08,15,19.70
2016,07,21,08,16,19.70
2016,07,21,08,17,19.70
2016,07,21,08,18,19.70
2016,07,21,08,19,19.60
2016,07,21,08,20,19.50
2016,07,21,08,21,19.50
2016,07,21,08,22,19.50
2016,07,21,08,23,19.60
2016,07,21,08,24,19.60
2016,07,21,08,25,19.60
2016,07,21,08,26,19.70
2016,07,21,08,27,19.80
2016,07,21,08,28,19.90
2016,07,21,08,29,20.10
2016,07,21,08,30,20.20
2016,07,21,08,31,20.30
2016,07,21,08,32,20.40
2016,07,21,08,33,20.50
2016,07,21,08,34,20.50
2016,07,21,08,35,20.60
2016,07,21,08,36,20.70
2016,07,21,08,37,20.70
2016,07,21,08,38,20.70
2016,07,21,08,39,20.80
2016,07,21,08,40,20.80
2016,07,21,08,41,20.80
2016,07,21,08,42,20.80
2016,07,21,08,43,20.70
2016,07,21,08,44,20.60
2016,07,21,08,45,20.60
2016,07,21,08,46,20.70
2016,07,21,08,47,20.70
2016,07,21,08,48,20.70
2016,07,21,08,49,20.60
2016,07,21,08,50,20.60
2016,07,21,08,51,20.50
2016,07,21,08,52,20.40
2016,07,21,08,53,20.40
2016,07,21,08,54,20.40
2016,07,21,08,55,20.30
2016,07,21,08,56,20.30
2016,07,21,08,57,20.30
2016,07,21,08,58,20.20
2016,07,21,08,59,20.20
2016,07,21,09,00,20.10
2016,07,21,09,01,20.10
2016,07,21,09,02,20.00
2016,07,21,09,03,20.10
2016,07,21,09,04,20.10
2016,07,21,09,05,20.20
2016,07,21,09,06,20.20
2016,07,21,09,07,20.40
2016,07,21,09,08,20.40
2016,07,21,09,09,20.50
2016,07,21,09,10,20.50
2016,07,21,09,11,20.50
2016,07,21,09,12,20.50
2016,07,21,09,13,20.60
2016,07,21,09,14,20.70
2016,07,21,09,15,20.70
2016,07,21,09,16,20.80
2016,07,21,09,17,20.80
2016,07,21,09,18,20.80
2016,07,21,09,19,20.80
2016,07,21,09,20,20.90
2016,07,21,09,21,20.90
2016,07,21,09,22,21.00
2016,07,21,09,23,21.00
2016,07,21,09,24,21.10
2016,07,21,09,25,21.20
2016,07,21,09,26,21.20
2016,07,21,09,27,21.20
2016,07,21,09,28,21.20
2016,07,21,09,29,21.20
2016,07,21,09,30,21.20
2016,07,21,09,31,21.30
2016,07,21,09,32,21.30
2016,07,21,09,33,21.30
2016,07,21,09,34,21.30
2016,07,21,09,35,21.30
2016,07,21,09,36,21.30
2016,07,21,09,37,21.40
2016,07,21,09,38,21.50
2016,07,21,09,39,21.60
2016,07,21,09,40,21.70
2016,07,21,09,41,21.80
2016,07,21,09,42,21.80
2016,07,21,09,43,21.80
2016,07,21,09,44,21.80
2016,07,21,09,45,21.80
2016,07,21,09,46,21.90
2016,07,21,09,47,22.00
2016,07,21,09,48,22.00
2016,07,21,09,49,22.10
2016,07,21,09,50,22.10
2016,07,21,09,51,22.10
2016,07,21,09,52,22.10
2016,07,21,09,53,22.10
2016,07,21,09,54,22.10
2016,07,21,09,55,22.00
2016,07,21,09,56,22.10
2016,07,21,09,57,22.20
2016,07,21,09,58,22.30
2016,07,21,09,59,22.30
2016,07,21,10,00,22.30
2016,07,21,10,01,22.30
2016,07,21,10,02,22.30
2016,07,21,10,03,22.30
2016,07,21,10,04,22.30
2016,07,21,10,05,22.30
2016,07,21,10,06,22.30
2016,07,21,10,07,22.30
2016,07,21,10,08,22.30
2016,07,21,10,09,22.30
2016,07,21,10,10,22.30
2016,07,21,10,11,22.30
2016,07,21,10,12,22.40
2016,07,21,10,13,22.50
2016,07,21,10,14,22.60
2016,07,21,10,15,22.70
2016,07,21,10,16,22.80
2016,07,21,10,17,22.80
2016,07,21,10,18,22.90
2016,07,21,10,19,23.00
2016,07,21,10,20,23.00
2016,07,21,10,21,23.10
2016,07,21,10,22,23.20
2016,07,21,10,23,23.20
2016,07,21,10,24,23.20
2016,07,21,10,25,23.20
2016,07,21,10,26,23.30
2016,07,21,10,27,23.30
2016,07,21,10,28,23.40
2016,07,21,10,29,23.40
2016,07,21,10,30,23.50
2016,07,21,10,31,23.50
2016,07,21,10,32,23.50
2016,07,21,10,33,23.40
2016,07,21,10,34,23.20
2016,07,21,10,35,23.00
2016,07,21,10,36,22.80
2016,07,21,10,37,22.70
2016,07,21,10,38,22.70
2016,07,21,10,39,22.70
2016,07,21,10,40,22.70
2016,07,21,10,41,22.80
2016,07,21,10,42,22.80
2016,07,21,10,43,22.80
2016,07,21,10,44,22.90
2016,07,21,10,45,23.00
2016,07,21,10,46,23.10
2016,07,21,10,47,23.20
2016,07,21,10,48,23.10
2016,07,21,10,49,23.10
2016,07,21,10,50,23.00
2016,07,21,10,51,23.00
2016,07,21,10,52,23.00
2016,07,21,10,53,23.00
2016,07,21,10,54,23.00
2016,07,21,10,55,23.10
2016,07,21,10,56,23.10
2016,07,21,10,57,23.20
2016,07,21,10,58,23.30
2016,07,21,10,59,23.50
2016,07,21,11,00,23.70
2016,07,21,11,01,23.80
2016,07,21,11,02,23.90
2016,07,21,11,03,24.10
2016,07,21,11,04,24.00
2016,07,21,11,05,23.90
2016,07,21,11,06,23.80
2016,07,21,11,07,23.60
2016,07,21,11,08,23.50
2016,07,21,11,09,23.40
2016,07,21,11,10,23.30
2016,07,21,11,11,23.40
2016,07,21,11,12,23.40
2016,07,21,11,13,23.50
2016,07,21,11,14,23.50
2016,07,21,11,15,23.50
2016,07,21,11,16,23.60
2016,07,21,11,17,23.70
2016,07,21,11,18,23.70
2016,07,21,11,19,23.60
2016,07,21,11,20,23.60
2016,07,21,11,21,23.50
2016,07,21,11,22,23.50
2016,07,21,11,23,23.50
2016,07,21,11,24,23.40
2016,07,21,11,25,23.50
2016,07,21,11,26,23.60
2016,07,21,11,27,23.60
2016,07,21,11,28,23.80
2016,07,21,11,29,23.90
2016,07,21,11,30,24.00
2016,07,21,11,31,24.10
2016,07,21,11,32,24.20
2016,07,21,11,33,24.00
2016,07,21,11,34,23.80
2016,07,21,11,35,23.70
2016,07,21,11,36,23.60
2016,07,21,11,37,23.60
2016,07,21,11,38,23.60
2016,07,21,11,39,23.60
2016,07,21,11,40,23.60
2016,07,21,11,41,23.60
2016,07,21,11,42,23.50
2016,07,21,11,43,23.50
2016,07,21,11,44,23.50
2016,07,21,11,45,23.50
2016,07,21,11,46,23.60
2016,07,21,11,47,23.70
2016,07,21,11,48,23.80
2016,07,21,11,49,23.80
2016,07,21,11,50,23.90
2016,07,21,11,51,24.00
2016,07,21,11,52,24.10
2016,07,21,11,53,24.20
2016,07,21,11,54,24.20
2016,07,21,11,55,24.30
2016,07,21,11,56,24.30
2016,07,21,11,57,24.30
2016,07,21,11,58,24.30
2016,07,21,11,59,24.30
2016,07,21,12,00,24.20
2016,07,21,12,01,24.10
2016,07,21,12,02,24.10
2016,07,21,12,03,24.10
2016,07,21,12,04,24.20
2016,07,21,12,05,24.30
2016,07,21,12,06,24.30
2016,07,21,12,07,24.30
2016,07,21,12,08,24.40
2016,07,21,12,09,24.40
2016,07,21,12,10,24.50
2016,07,21,12,11,24.50
2016,07,21,12,12,24.60
2016,07,21,12,13,24.60
2016,07,21,12,14,24.70
2016,07,21,12,15,24.70
2016,07,21,12,16,24.80
2016,07,21,12,17,24.80
2016,07,21,12,18,24.80
2016,07,21,12,19,24.90
2016,07,21,12,20,25.00
2016,07,21,12,21,25.10
2016,07,21,12,22,25.10
2016,07,21,12,23,25.10
2016,07,21,12,24,25.00
2016,07,21,12,25,25.00
2016,07,21,12,26,25.00
2016,07,21,12,27,24.80
2016,07,21,12,28,24.80
2016,07,21,12,29,24.90
2016,07,21,12,30,25.00
2016,07,21,12,31,25.00
2016,07,21,12,32,25.20
2016,07,21,12,33,25.30
2016,07,21,12,34,25.40
2016,07,21,12,35,25.50
2016,07,21,12,36,25.60
2016,07,21,12,37,25.50
2016,07,21,12,38,25.40
2016,07,21,12,39,25.30
2016,07,21,12,40,25.30
2016,07,21,12,41,25.30
2016,07,21,12,42,25.30
2016,07,21,12,43,25.40
2016,07,21,12,44,25.50
2016,07,21,12,45,25.50
2016,07,21,12,46,25.40
2016,07,21,12,47,25.20
2016,07,21,12,48,25.00
2016,07,21,12,49,25.00
2016,07,21,12,50,25.00
2016,07,21,12,51,25.00
2016,07,21,12,52,25.00
2016,07,21,12,53,25.10
2016,07,21,12,54,25.20
2016,07,21,12,55,25.20
2016,07,21,12,56,25.20
2016,07,21,12,57,25.20
2016,07,21,12,58,25.30
2016,07,21,12,59,25.50
2016,07,21,13,00,25.50
2016,07,21,13,01,25.40
2016,07,21,13,02,25.40
2016,07,21,13,03,25.40
2016,07,21,13,04,25.50
2016,07,21,13,05,25.60
2016,07,21,13,06,25.70
2016,07,21,13,07,25.80
2016,07,21,13,08,25.90
2016,07,21,13,09,26.00
2016,07,21,13,10,26.10
2016,07,21,13,11,26.00
2016,07,21,13,12,25.80
2016,07,21,13,13,25.70
2016,07,21,13,14,25.70
2016,07,21,13,15,25.80
2016,07,21,13,16,25.90
2016,07,21,13,17,26.10
2016,07,21,13,18,26.30
2016,07,21,13,19,26.50
2016,07,21,13,20,26.70
2016,07,21,13,21,26.80
2016,07,21,13,22,26.80
2016,07,21,13,23,26.80
2016,07,21,13,24,26.70
2016,07,21,13,25,26.60
2016,07,21,13,26,26.40
2016,07,21,13,27,26.20
2016,07,21,13,28,26.00
2016,07,21,13,29,25.90
2016,07,21,13,30,26.00
2016,07,21,13,31,26.10
2016,07,21,13,32,26.10
2016,07,21,13,33,26.20
2016,07,21,13,34,26.00
2016,07,21,13,35,26.00
2016,07,21,13,36,26.10
2016,07,21,13,37,26.10
2016,07,21,13,38,26.20
2016,07,21,13,39,26.10
2016,07,21,13,40,26.10
2016,07,21,13,41,26.10
2016,07,21,13,42,26.10
2016,07,21,13,43,26.20
2016,07,21,13,44,26.00
2016,07,21,13,45,25.90
2016,07,21,13,46,25.90
2016,07,21,13,47,26.00
2016,07,21,13,48,26.00
2016,07,21,13,49,25.90
2016,07,21,13,50,25.90
2016,07,21,13,51,25.80
2016,07,21,13,52,25.70
2016,07,21,13,53,25.70
2016,07,21,13,54,25.70
2016,07,21,13,55,25.80
2016,07,21,13,56,25.80
2016,07,21,13,57,25.90
2016,07,21,13,58,26.00
2016,07,21,13,59,26.10
2016,07,21,14,00,26.20
2016,07,21,14,01,26.30
2016,07,21,14,02,26.30
2016,07,21,14,03,26.30
2016,07,21,14,04,26.20
2016,07,21,14,05,26.10
2016,07,21,14,06,26.10
2016,07,21,14,07,26.10
2016,07,21,14,08,26.20
2016,07,21,14,09,26.30
2016,07,21,14,10,26.20
2016,07,21,14,11,26.20
2016,07,21,14,12,26.10
2016,07,21,14,13,26.10
2016,07,21,14,14,26.10
2016,07,21,14,15,26.00
2016,07,21,14,16,25.90
2016,07,21,14,17,25.80
2016,07,21,14,18,25.90
2016,07,21,14,19,26.00
2016,07,21,14,20,26.10
2016,07,21,14,21,26.30
2016,07,21,14,22,26.40
2016,07,21,14,23,26.50
2016,07,21,14,24,26.60
2016,07,21,14,25,26.60
2016,07,21,14,26,26.60
2016,07,21,14,27,26.60
2016,07,21,14,28,26.50
2016,07,21,14,29,26.40
2016,07,21,14,30,26.30
2016,07,21,14,31,26.20
2016,07,21,14,32,26.20
2016,07,21,14,33,26.20
2016,07,21,14,34,26.10
2016,07,21,14,35,26.10
2016,07,21,14,36,26.00
2016,07,21,14,37,25.90
2016,07,21,14,38,26.00
2016,07,21,14,39,26.00
2016,07,21,14,40,25.90
2016,07,21,14,41,25.80
2016,07,21,14,42,25.70
2016,07,21,14,43,25.70
2016,07,21,14,44,25.60
2016,07,21,14,45,25.40
2016,07,21,14,46,25.20
2016,07,21,14,47,25.20
2016,07,21,14,48,25.30
2016,07,21,14,49,25.40
2016,07,21,14,50,25.50
2016,07,21,14,51,25.60
2016,07,21,14,52,25.70
2016,07,21,14,53,25.90
2016,07,21,14,54,26.00
2016,07,21,14,55,26.20
2016,07,21,14,56,26.40
2016,07,21,14,57,26.60
2016,07,21,14,58,26.80
2016,07,21,14,59,27.00
2016,07,21,15,00,27.00
2016,07,21,15,01,26.90
2016,07,21,15,02,26.90
2016,07,21,15,03,26.90
2016,07,21,15,04,26.90
2016,07,21,15,05,26.70
2016,07,21,15,06,26.50
2016,07,21,15,07,26.50
2016,07,21,15,08,26.50
2016,07,21,15,09,26.50
2016,07,21,15,10,26.30
2016,07,21,15,11,26.20
2016,07,21,15,12,26.10
2016,07,21,15,13,26.10
2016,07,21,15,14,26.20
2016,07,21,15,15,26.20
2016,07,21,15,16,26.30
2016,07,21,15,17,26.50
2016,07,21,15,18,26.60
2016,07,21,15,19,26.70
2016,07,21,15,20,26.80
2016,07,21,15,21,26.90
2016,07,21,15,22,27.00
2016,07,21,15,23,27.00
2016,07,21,15,24,27.10
2016,07,21,15,25,27.10
2016,07,21,15,26,27.20
2016,07,21,15,27,27.30
2016,07,21,15,28,27.30
2016,07,21,15,29,27.30
2016,07,21,15,30,27.30
2016,07,21,15,31,27.30
2016,07,21,15,32,27.30
2016,07,21,15,33,27.30
2016,07,21,15,34,27.30
2016,07,21,15,35,27.30
2016,07,21,15,36,27.40
2016,07,21,15,37,27.40
2016,07,21,15,38,27.40
2016,07,21,15,39,27.40
2016,07,21,15,40,27.20
2016,07,21,15,41,26.90
2016,07,21,15,42,26.70
2016,07,21,15,43,26.60
2016,07,21,15,44,26.50
2016,07,21,15,45,26.40
2016,07,21,15,46,26.50
2016,07,21,15,47,26.50
2016,07,21,15,48,26.60
2016,07,21,15,49,26.70
2016,07,21,15,50,26.70
2016,07,21,15,51,26.70
2016,07,21,15,52,26.70
2016,07,21,15,53,26.80
2016,07,21,15,54,26.80
2016,07,21,15,55,26.90
2016,07,21,15,56,26.90
2016,07,21,15,57,26.80
2016,07,21,15,58,26.80
2016,07,21,15,59,26.80
2016,07,21,16,00,26.90
2016,07,21,16,01,26.90
2016,07,21,16,02,27.00
2016,07,21,16,03,27.10
2016,07,21,16,04,27.20
2016,07,21,16,05,27.20
2016,07,21,16,06,27.30
2016,07,21,16,07,27.30
2016,07,21,16,08,27.30
2016,07,21,16,09,27.30
2016,07,21,16,10,27.30
2016,07,21,16,11,27.20
2016,07,21,16,12,27.20
2016,07,21,16,13,27.30
2016,07,21,16,14,27.30
2016,07,21,16,15,27.20
2016,07,21,16,16,27.10
2016,07,21,16,17,26.90
2016,07,21,16,18,26.80
2016,07,21,16,19,26.70
2016,07,21,16,20,26.60
2016,07,21,16,21,26.60
2016,07,21,16,22,26.60
2016,07,21,16,23,26.50
2016,07,21,16,24,26.40
2016,07,21,16,25,26.30
2016,07,21,16,26,26.30
2016,07,21,16,27,26.30
2016,07,21,16,28,26.20
2016,07,21,16,29,26.20
2016,07,21,16,30,26.30
2016,07,21,16,31,26.30
2016,07,21,16,32,26.40
2016,07,21,16,33,26.40
2016,07,21,16,34,26.50
2016,07,21,16,35,26.60
2016,07,21,16,36,26.70
2016,07,21,16,37,26.80
2016,07,21,16,38,26.90
2016,07,21,16,39,26.80
2016,07,21,16,40,26.90
2016,07,21,16,41,26.90
2016,07,21,16,42,27.00
2016,07,21,16,43,27.10
2016,07,21,16,44,27.20
2016,07,21,16,45,27.10
2016,07,21,16,46,27.10
2016,07,21,16,47,27.00
2016,07,21,16,48,26.90
2016,07,21,16,49,26.80
2016,07,21,16,50,26.70
2016,07,21,16,51,26.70
2016,07,21,16,52,26.70
2016,07,21,16,53,26.70
2016,07,21,16,54,26.70
2016,07,21,16,55,26.80
2016,07,21,16,56,26.90
2016,07,21,16,57,27.00
2016,07,21,16,58,27.10
2016,07,21,16,59,27.20
2016,07,21,17,00,27.30
2016,07,21,17,01,27.40
2016,07,21,17,02,27.50
2016,07,21,17,03,27.50
2016,07,21,17,04,27.60
2016,07,21,17,05,27.70
2016,07,21,17,06,27.70
2016,07,21,17,07,27.80
2016,07,21,17,08,27.70
2016,07,21,17,09,27.70
2016,07,21,17,10,27.60
2016,07,21,17,11,27.50
2016,07,21,17,12,27.40
2016,07,21,17,13,27.40
2016,07,21,17,14,27.40
2016,07,21,17,15,27.30
2016,07,21,17,16,27.30
2016,07,21,17,17,27.20
2016,07,21,17,18,27.20
2016,07,21,17,19,27.10
2016,07,21,17,20,27.00
2016,07,21,17,21,27.00
2016,07,21,17,22,26.90